Dewpoint
58 57 57 57 57 57 58 58 57 57 57 57 57 57 58 58 58 58 57 57 57 57 57 57 58 58 57 58 57 57 59 55 43 32 30 20 49 66 67 66 73 77 74 61 53 46 43 41 39 42 41 37 38 39 43 53 44 52 43 40 36 37 38 45 47 49 52 52 57 62 62 61 61 62 63 62 63 63 62 64 64 64 63 63 63 65 66 67
57 57 57 57 57 58 57 57 57 57 57 57 57 57 58 58 58 57 57 57 57 57 57 58 58 57 57 57 57 57 57 54 41 33 30 50 66 70 68 67 75 76 73 52 41 39 35 34 36 37 34 29 36 39 43 47 48 41 40 38 35 39 41 48 51 55 54 54 58 62 63 62 62 58 62 61 61 62 60 64 66 65 63 64 65 65 66 67
57 57 57 57 57 58 57 57 57 56 56 56 57 57 57 57 57 57 57 57 57 57 57 57 57 57 57 57 57 58 56 49 47 41 39 67 67 70 70 73 76 75 62 40 35 35 32 31 34 33 29 27 30 29 38 40 45 44 42 35 39 41 42 50 54 57 61 60 59 61 63 63 63 62 61 59 60 61 60 63 63 64 63 63 65 65 66 67
57 57 57 57 57 57 57 57 56 56 56 56 57 57 57 57 57 57 57 57 56 57 57 57 57 57 57 57 57 58 56 48 34 38 51 69 68 70 73 76 74 73 50 34 35 31 30 33 35 26 25 25 29 33 30 32 37 43 40 36 41 42 43 49 55 60 61 61 61 60 64 62 63 63 62 61 59 60 60 60 62 65 66 65 65 64 64 65
57 57 57 57 57 57 57 56 56 57 57 56 57 57 57 57 56 56 56 56 56 57 57 57 57 57 57 57 58 57 53 41 33 45 65 72 67 68 74 75 74 55 38 32 30 31 33 32 27 24 24 29 30 28 27 30 35 36 34 34 39 41 42 51 53 62 61 62 61 62 61 60 65 62 60 58 57 54 56 62 60 64 67 66 64 64 64 64
57 57 57 57 57 57 56 56 56 56 57 57 57 57 56 56 56 56 56 56 56 57 57 57 57 58 57 57 57 56 47 24 34 48 76 72 68 68 72 75 74 50 32 27 28 31 29 26 24 24 26 31 28 25 26 23 32 33 35 33 37 40 42 47 57 63 63 62 61 60 63 61 60 60 61 59 58 59 56 56 59 62 65 66 64 64 63 64
57 57 57 57 57 56 56 57 56 56 56 57 57 56 56 56 56 56 56 56 56 57 58 57 58 58 58 58 57 51 41 34 38 58 73 71 69 69 69 72 72 47 27 24 26 25 25 23 23 22 30 30 27 25 25 22 27 31 30 28 39 43 44 48 60 64 61 59 61 65 64 60 60 59 62 60 59 59 57 57 60 62 62 65 66 65 63 63
56 56 56 56 56 56 57 57 56 56 57 56 56 56 56 55 56 56 56 56 56 57 57 58 58 58 59 55 53 45 35 37 47 61 71 70 67 67 65 51 50 31 24 24 24 23 23 22 22 28 31 27 26 24 23 21 26 21 21 23 34 48 51 57 58 61 64 64 65 64 61 62 61 60 58 59 57 59 61 58 58 62 65 64 65 65 65 63
56 56 56 56 56 56 56 56 56 56 56 56 56 56 55 55 56 56 56 56 56 57 57 58 59 59 59 55 44 34 34 49 58 62 59 61 58 59 53 46 38 26 24 24 22 23 23 22 25 28 28 26 28 24 22 20 25 20 21 29 42 49 54 59 62 63 62 65 66 62 61 62 62 60 58 58 56 61 58 58 61 66 65 66 66 66 65 64
55 55 56 56 56 55 55 56 56 56 56 56 56 55 55 56 56 56 56 56 56 56 57 58 58 59 57 53 43 34 41 57 61 60 52 55 49 40 33 29 30 26 24 23 22 23 23 22 29 32 31 30 28 22 21 20 22 21 22 39 45 56 56 60 61 62 62 63 64 60 59 62 64 59 50 59 56 57 56 58 62 66 64 66 65 66 66 65
55 55 55 55 55 55 55 56 56 56 56 56 56 55 55 55 55 56 56 56 57 56 57 57 60 59 54 48 38 32 38 44 56 58 55 50 39 35 34 29 30 27 24 24 22 22 22 30 31 31 28 24 24 21 21 20 21 21 27 40 49 55 56 59 62 62 60 63 63 63 60 62 63 62 54 57 56 56 56 58 62 62 62 64 66 65 66 65
55 55 55 55 55 55 55 55 56 56 56 55 55 55 55 55 55 55 56 56 57 58 58 58 60 57 53 48 34 29 38 43 54 55 53 43 38 34 33 32 32 28 25 22 22 21 35 38 33 29 23 23 20 22 20 21 21 21 29 30 47 54 58 59 61 63 61 61 62 64 60 59 64 59 60 58 56 56 56 58 60 60 63 63 65 65 64 65
55 55 55 55 55 55 55 55 55 56 56 55 55 55 55 55 55 55 56 57 58 58 58 59 59 57 53 38 30 37 45 50 53 52 47 40 38 39 37 34 32 30 26 23 21 25 31 37 31 26 26 23 22 20 21 22 21 20 26 28 31 45 47 58 62 62 60 65 64 62 45 40 56 60 59 57 56 56 57 58 58 62 61 62 62 64 63 64
55 55 54 54 54 55 55 55 55 55 55 55 55 55 55 55 56 56 57 57 58 58 59 59 58 55 53 32 34 45 47 49 50 47 43 40 35 35 34 32 32 32 30 25 25 28 26 28 27 27 25 23 21 22 21 20 21 20 22 22 26 23 39 53 54 61 57 65 64 61 45 34 56 57 63 62 62 56 56 56 57 62 62 62 61 62 61 62
55 54 54 54 54 55 55 55 55 55 55 55 55 54 55 55 57 58 58 58 58 59 59 60 58 56 43 28 43 49 59 46 41 38 38 36 33 34 34 33 31 30 30 26 23 29 26 27 28 25 24 22 21 21 20 18 18 19 17 23 24 21 42 50 47 56 53 63 61 57 46 35 43 55 59 64 64 56 55 53 56 62 63 61 62 61 59 61
54 54 55 55 54 54 55 55 55 55 54 55 54 54 55 56 57 58 58 60 60 59 59 58 57 50 35 26 47 58 45 39 39 36 33 31 20 21 31 31 31 32 31 27 25 26 28 27 25 24 22 23 24 22 19 17 17 18 16 16 20 21 29 34 49 56 57 56 61 57 42 45 40 55 59 63 64 57 54 53 54 60 61 60 61 61 60 61
54 55 55 55 55 54 54 55 55 55 54 54 54 55 55 57 58 59 59 59 59 59 57 49 46 43 34 32 38 41 36 38 38 36 34 34 33 25 28 25 21 24 27 24 25 27 28 27 23 23 23 24 21 20 19 18 19 16 16 17 26 21 20 21 40 53 55 52 45 57 51 44 41 53 59 62 60 55 52 50 56 60 61 61 60 59 60 61
55 55 55 55 55 54 54 54 55 54 54 54 54 55 56 60 60 61 60 59 55 54 54 52 45 41 24 25 29 31 31 37 39 36 33 36 34 26 29 29 24 22 27 31 31 27 25 25 22 24 22 23 24 22 18 16 14 16 21 19 21 22 25 26 22 49 43 52 48 39 49 50 47 47 55 60 61 53 53 50 51 56 56 60 59 60 60 61
55 55 55 55 55 54 54 54 54 54 54 54 55 57 57 59 60 57 50 50 49 41 33 34 25 20 18 24 29 29 32 35 39 37 35 35 33 32 32 33 31 29 26 24 24 25 23 22 23 25 22 21 20 19 16 14 13 12 14 19 23 20 21 21 29 31 39 32 35 41 39 35 37 42 51 57 59 57 54 53 53 53 55 59 60 61 62 61
55 55 55 55 55 54 54 54 54 53 53 54 54 57 56 53 49 49 49 44 34 28 27 23 22 16 23 26 28 34 36 37 36 37 35 36 35 31 27 26 26 22 22 16 21 21 21 22 22 23 21 21 20 19 18 18 17 12 10 12 20 17 20 34 37 37 44 41 33 37 36 36 37 39 42 57 59 58 56 54 56 56 56 59 62 62 61 62
55 55 55 54 54 54 54 54 54 54 52 52 53 53 34 34 27 33 44 38 32 32 32 31 27 25 28 29 31 33 33 34 35 36 34 38 34 28 23 23 21 16 18 15 18 18 20 21 21 21 20 20 20 20 20 20 18 15 11 10 15 14 18 31 35 45 48 40 28 35 41 41 40 40 45 57 58 56 55 54 55 58 57 60 61 63 62 63
55 55 55 54 54 54 54 54 53 53 51 52 52 44 33 35 35 33 32 25 31 33 36 35 39 33 32 32 33 33 33 33 33 35 39 39 33 27 24 20 17 12 18 17 17 16 18 18 19 19 19 19 19 18 17 17 15 12 10 13 15 16 16 37 49 43 50 43 31 39 39 34 35 40 45 56 56 54 54 55 55 57 59 59 62 61 62 62
55 55 55 55 54 53 54 53 53 52 52 51 47 40 35 38 38 40 35 27 21 30 29 31 29 29 29 34 35 34 32 31 31 34 36 36 29 30 24 16 17 14 16 12 9 9 11 13 15 16 17 16 15 14 13 11 11 8 7 10 10 20 10 13 42 48 52 39 33 36 35 36 41 43 45 55 56 56 59 59 58 58 58 60 60 60 60 61
55 55 55 55 55 54 53 52 51 51 51 49 45 39 40 41 41 37 35 24 17 23 24 30 29 27 26 27 31 32 32 30 31 31 37 32 28 27 25 16 16 15 11 10 8 4 4 8 8 10 11 12 11 9 8 7 4 6 7 7 9 8 9 9 20 31 49 49 49 45 45 34 28 30 45 56 56 58 60 61 61 60 61 61 63 61 61 60
55 54 54 54 54 54 52 51 51 50 48 47 42 41 42 47 50 44 39 24 11 19 27 28 34 29 30 33 34 31 31 32 30 31 36 32 29 25 22 22 19 12 9 12 12 9 5 8 8 7 7 7 8 7 7 4 4 7 9 10 9 9 8 8 12 11 18 36 48 45 20 20 26 31 28 53 55 55 58 59 60 60 61 61 60 60 62 65
55 54 54 54 54 52 50 51 50 47 44 42 41 43 45 46 46 48 38 22 8 14 19 21 32 23 32 28 33 33 32 29 30 32 35 31 35 28 22 18 16 13 13 14 7 5 3 7 7 7 8 8 8 7 9 11 7 8 9 11 11 10 9 10 9 16 16 20 46 43 24 19 20 26 35 46 46 47 57 58 57 60 62 61 61 61 63 66
54 54 54 54 54 52 50 48 50 47 44 39 43 45 47 46 54 43 30 11 7 12 12 21 26 30 34 31 32 33 26 27 32 33 34 34 29 28 19 13 14 13 12 11 10 0 6 7 4 7 9 8 9 8 10 13 9 8 12 12 11 10 9 8 9 15 18 29 43 40 32 23 23 25 35 46 45 48 51 57 59 59 62 61 59 60 64 65
54 54 54 53 53 52 52 51 46 44 42 45 46 46 48 51 52 40 31 -3 13 19 12 16 18 32 30 33 33 30 26 30 26 31 32 33 30 27 24 13 11 10 10 9 2 12 5 4 6 8 10 9 8 8 16 14 11 11 14 13 13 11 10 9 9 11 17 19 16 33 38 27 26 31 37 44 37 35 38 47 54 60 61 62 61 59 62 65
53 53 53 53 52 51 52 50 50 42 46 46 47 47 46 52 39 31 28 16 18 18 19 16 29 29 29 32 32 28 24 26 22 30 28 30 29 22 22 21 17 14 12 11 5 12 13 14 9 9 11 10 11 13 14 15 13 15 16 20 22 20 15 14 13 17 24 24 18 20 30 23 26 28 28 41 32 35 37 39 50 56 60 60 59 60 60 64
53 53 53 52 51 50 51 50 48 47 49 48 48 49 43 39 35 27 15 15 20 7 14 19 24 24 28 28 29 29 25 23 23 27 29 31 29 25 22 20 18 18 15 15 13 12 13 28 27 16 15 14 16 16 16 15 15 18 18 22 21 20 20 22 24 27 25 22 19 18 20 21 23 26 24 29 38 31 33 38 47 53 56 58 59 59 59 60
52 52 52 51 50 47 47 43 44 47 49 52 50 42 40 36 29 23 14 19 22 18 17 16 19 24 24 25 24 28 27 24 23 26 26 27 27 26 23 21 22 18 16 15 13 13 13 15 22 19 19 16 16 15 17 16 16 17 16 14 16 23 27 27 29 34 21 12 18 22 21 27 24 25 29 31 36 35 39 41 44 50 54 57 59 59 58 59
51 51 52 52 50 49 47 43 49 49 52 51 45 39 34 29 24 24 17 21 19 17 16 12 16 20 23 23 21 23 24 25 23 24 23 24 25 25 24 22 20 16 12 11 8 13 12 12 15 15 25 17 17 13 13 15 15 14 13 16 15 18 19 20 17 17 13 12 26 29 32 35 35 31 25 27 24 38 45 45 43 48 54 58 58 59 61 61
49 50 51 51 50 49 48 51 54 54 52 49 43 36 31 24 24 20 18 20 21 23 18 20 15 17 20 21 21 22 24 21 23 22 23 23 22 22 23 22 22 18 18 14 11 10 7 9 12 12 20 24 16 10 9 10 12 11 12 13 13 15 15 17 15 15 11 13 24 27 42 29 23 22 26 25 35 40 45 50 49 52 54 60 61 60 60 61
49 50 52 51 50 50 51 56 53 51 47 47 43 31 29 26 25 35 26 26 22 25 22 19 18 16 18 17 18 21 20 21 21 20 21 23 21 20 20 22 22 21 19 16 10 10 8 6 8 12 9 16 16 12 8 7 9 10 9 7 13 16 11 18 15 12 13 17 33 39 27 27 22 35 26 32 37 41 42 44 53 56 59 62 62 60 59 60
48 52 55 53 52 51 50 50 53 51 47 38 32 28 26 28 27 26 25 26 26 25 23 20 18 16 16 16 18 20 19 20 20 21 20 19 18 19 19 18 22 21 19 16 15 18 12 12 12 10 16 17 13 12 10 10 10 9 10 11 11 12 14 12 16 14 14 14 15 36 23 24 27 30 33 36 35 36 45 50 54 56 58 62 62 61 59 59
48 54 54 55 53 51 52 52 54 50 46 34 27 28 26 29 25 27 32 33 26 26 17 17 17 16 14 14 17 16 20 20 20 19 19 18 19 19 21 20 20 21 20 15 20 13 15 9 10 13 14 14 13 16 16 14 12 10 11 11 9 11 9 15 17 17 17 17 18 22 27 22 21 23 27 34 38 42 48 49 48 55 57 60 60 60 59 59
54 53 47 49 48 49 52 52 49 48 41 33 26 28 30 29 31 29 36 31 30 29 22 16 17 16 16 14 15 16 18 18 20 18 19 18 20 26 29 29 27 22 21 20 19 18 19 13 11 14 12 14 15 15 14 14 13 12 11 9 16 16 14 18 14 24 19 13 24 21 17 20 24 27 26 35 40 34 44 42 48 57 58 57 58 61 61 60
52 47 46 46 49 50 52 51 48 46 36 31 34 40 34 30 33 33 33 32 30 28 23 19 18 19 16 16 14 15 17 14 18 18 17 18 22 32 34 33 23 29 29 26 23 22 20 16 14 13 13 14 14 13 11 13 14 11 9 14 11 15 14 17 16 17 17 18 19 16 20 21 23 33 26 30 28 33 38 47 51 51 54 55 57 60 63 62
54 49 40 45 49 48 50 52 49 44 33 33 33 35 32 32 34 33 32 32 31 27 22 20 19 19 18 15 16 15 16 13 17 16 19 19 21 33 34 35 30 35 38 35 26 22 20 16 13 16 14 15 14 12 12 10 12 12 13 10 11 15 14 19 18 19 23 17 17 23 21 19 31 27 21 26 30 34 35 42 40 44 50 55 56 57 60 62
43 40 39 46 46 52 55 51 43 38 35 32 33 32 35 32 32 32 32 34 24 25 21 20 21 18 20 18 17 15 17 16 15 17 16 19 20 32 34 36 34 35 38 35 29 21 20 27 19 13 15 15 13 13 10 12 10 10 10 10 11 12 16 15 16 15 16 19 20 21 16 24 33 23 24 30 33 38 38 41 46 47 50 53 55 57 61 63
43 41 40 45 45 50 51 48 39 34 34 34 34 33 33 34 33 32 33 34 31 34 31 29 25 21 22 21 20 22 18 19 17 16 19 22 26 29 34 35 35 34 36 24 26 23 24 22 20 14 13 13 10 13 14 13 15 11 9 9 9 10 14 15 20 14 13 14 20 20 22 29 26 27 39 35 45 46 49 47 48 49 50 53 56 61 62 62
41 35 38 44 46 48 45 34 36 39 33 32 32 34 34 40 31 31 32 34 35 33 35 35 35 34 33 30 30 25 25 23 23 23 28 25 30 33 34 36 34 36 33 30 29 23 25 25 23 19 15 11 9 15 17 15 16 16 14 8 7 8 12 14 15 19 17 13 20 22 22 25 31 47 40 44 45 46 48 49 47 48 52 54 58 63 64 63
38 38 44 45 46 45 42 34 40 37 34 33 35 32 32 32 31 32 32 33 32 34 35 35 36 36 36 38 35 29 31 29 33 31 32 32 32 33 35 35 35 33 36 34 32 35 35 22 21 20 21 17 16 18 22 21 19 18 15 13 12 9 9 12 14 21 21 27 21 23 25 29 39 50 51 52 56 54 56 49 50 48 49 53 62 64 67 66
41 40 40 42 46 45 42 31 33 34 33 33 33 32 32 31 31 31 32 33 33 34 35 35 35 37 37 37 35 34 34 32 33 33 32 33 33 34 35 34 35 33 34 35 36 37 26 34 28 24 21 18 14 19 17 19 19 16 11 14 16 15 17 16 19 24 20 23 20 20 23 35 37 45 44 52 48 49 49 50 51 47 53 54 61 66 66 66
41 42 40 40 45 43 35 39 35 33 34 34 33 32 31 31 31 32 32 32 33 33 34 33 34 35 36 36 35 35 35 35 33 32 34 32 32 34 34 34 35 34 34 39 48 42 37 36 36 22 19 16 13 14 16 18 16 13 17 19 23 19 21 21 18 25 20 43 35 23 28 33 33 42 35 36 38 47 48 49 49 53 55 53 58 63 67 67
38 40 37 37 40 39 42 43 39 35 35 36 34 33 31 30 31 32 32 31 32 33 33 34 33 33 34 35 35 34 34 35 34 36 34 32 33 34 34 34 35 35 45 52 42 43 40 35 34 36 33 24 28 35 25 25 19 17 14 17 18 18 21 23 27 28 21 41 30 30 28 25 29 31 31 30 40 44 43 48 45 48 53 58 62 64 65 67
39 39 40 37 37 37 37 38 36 36 36 37 38 34 33 31 31 31 32 32 33 32 33 33 32 34 33 34 34 33 34 34 37 37 35 34 34 33 33 33 35 39 53 47 43 34 39 31 34 39 35 32 27 28 24 24 21 19 14 13 15 18 23 22 21 26 36 28 21 35 42 34 27 25 27 32 41 46 45 46 45 49 53 53 58 66 65 67
36 40 43 43 42 39 37 36 38 34 35 35 36 36 33 31 32 33 32 32 33 33 33 33 32 32 32 33 35 34 35 37 37 36 34 35 34 32 31 33 33 38 40 32 33 35 34 30 34 32 29 27 26 26 28 24 22 22 20 16 19 18 23 22 22 22 28 25 25 46 45 37 31 22 26 39 46 48 42 46 47 50 52 56 61 61 61 62
42 41 41 44 41 39 39 39 40 36 37 37 36 36 33 32 32 32 32 33 32 33 34 34 32 32 32 33 34 34 39 32 37 40 38 34 33 35 32 32 34 34 32 33 34 41 37 30 35 31 30 28 27 27 25 23 22 21 19 18 17 20 22 21 19 20 22 28 26 28 43 30 24 31 35 42 49 52 52 50 55 54 52 58 57 58 54 59
42 44 38 42 41 41 41 38 38 37 35 42 40 36 35 34 34 34 34 35 34 34 35 35 33 33 33 34 35 32 36 36 36 33 38 37 32 38 34 33 31 33 31 32 33 40 34 35 38 30 31 28 28 28 27 26 27 25 21 18 17 18 19 21 20 20 26 22 21 26 33 33 39 48 50 50 53 56 57 54 48 50 53 56 57 56 55 58
48 50 52 47 38 40 43 38 39 38 37 39 38 37 36 35 35 35 35 36 35 35 35 33 34 33 34 32 34 35 35 36 37 37 36 36 33 34 33 33 32 32 31 33 36 36 35 33 32 32 31 28 26 26 25 25 24 24 24 22 19 19 21 20 23 25 26 26 29 31 33 37 50 53 51 52 48 49 52 56 52 52 52 54 53 51 55 58
51 49 51 50 39 45 39 38 38 36 36 38 37 36 36 34 34 35 37 36 36 35 34 31 31 27 27 31 31 35 34 33 33 34 35 34 34 34 33 33 32 33 32 33 36 34 35 34 33 31 29 29 26 28 26 27 26 23 24 24 25 24 23 21 23 31 33 34 33 32 30 50 55 54 51 51 49 51 52 56 56 54 57 55 53 50 53 57